sat.trackr.live / text

‹ back to catalog

FLOCK 4H-34

NORAD 66737 · 2025-276BZ

PAYLOAD ACTIVE UNKNOWN

§ Identity

Operator
Country
US
Launch date
2025-11-28
Launch site
AFWTR
Launch vehicle
Mass (kg)
RCS (m²)

Purposes: earth_obs

External: N2YO · Heavens-Above · Gunter

§ Orbital elements

Epoch: 2026-09-20T04:20:49.516224Z

Period
94.64 min
Inclination
97.4158°
Eccentricity
0.0002032
Mean motion
15.21533459 rev/d
Perigee alt
499.8 km
Apogee alt
502.6 km
Semi-major
6,879.4 km
B*
1.8678e-4
RAAN
335.6063°
Arg perigee
18.3605°
Mean anomaly
341.7704°
Rev number
4,412

§ Raw data

FLOCK 4H-341 66737U 25276BZ  26263.18112866  .00004137  00000+0  18678-3 0  99902 66737  97.4158 335.6063 0002032  18.3605 341.7704 15.21533459 44126

JSON: /api/v1/satellites/66737 · /tle

For live sub-satellite position, see the globe view (requires WebGL).

§ Visibility from observer

Set your observer location to see the next 7 days of passes ≥ 10°. The values pass through the URL so the page stays shareable.

No JS? Fill the form by hand. The geolocation button needs JavaScript.